User: anonymous   Login
Location: Champs
(48.8539°N, 2.6040°E)
Time: 07:32:54
(UTC+00:00)
Language:

COSMOS 2455 - Orbit

View from above orbital plane
View from above orbital plane
View from above satellite
View from above satellite

Ground track
Ground track

The orbit data is extracted from the following two-line orbital elements,

1 36095U 09063A   22023.85155390 -.00000059  00000-0  11931-4 0  9990
2 36095  67.1461 196.1211 0008863 266.3048  93.7024 13.96779332621100
Epoch (UTC): 23 January 2022 20:26:14
Eccentricity: 0.0008863
inclination: 67.1461°
perigee height: 898 km
apogee height: 911 km
right ascension of ascending node: 196.1211°
argument of perigee: 266.3048°
revolutions per day: 13.96779332
mean anomaly at epoch: 93.7024°
orbit number at epoch: 62110

The dashed part of the orbit path shows where the satellite is in the earth's shadow,  

DLR